Retour au catalogue

AIST-2T NO. 2

ActifScienceSSO
NORAD 67254·PAYLOAD·🇷🇺 Russia
Ce nom de satellite n'a pas encore été confirmé par des sources officielles.

Lancé Dec 28, 2025 depuis Vostochny Cosmodrome

Loading…

Prochains Passages (prochaines 24 heures)

TLE

FraisSource: Space-Track

Époque: Sep 14, 2026, 15:42 UTC

1 67254U 25313G   26257.65417055  .00021792  00000-0  26352-3 0  9995
2 67254  97.0751 335.0368 0005096 219.9365 140.1519 15.60702502 40562

Suivez AIST-2T NO. 2 en temps réel avec AllMySat

Download on the App Store